FW9017 Weather Reports


time (UTC)temp
F
wind
direction
speed
knots
gust
knots
rain 1hr
in
rain 24hr
in
rain mn
in
humidity
%
barometer
mb
20260506211557 59 178 0.0 2.6 0.01 0.15 0.15 97 1006.7
20260506204555 59 186 0.0 2.6 0.06 0.15 0.15 97 1007.0
20260506203103 59 0 0.0 2.6 0.08 0.15 0.15 97 1007.2
20260506201553 59 94 0.0 1.7 0.08 0.14 0.14 97 1007.3
20260506200137 59 168 0.0 4.3 0.05 0.11 0.11 96 1007.3
20260506194617 59 135 0.9 1.7 0.03 0.09 0.09 96 1007.5
20260506193059 59 193 0.0 3.5 0.01 0.07 0.07 96 1007.7
20260506191553 59 173 0.0 4.3 0.01 0.06 0.06 96 1007.8
20260506190057 59 0 0.0 2.6 0.02 0.06 0.06 96 1007.6
20260506184555 59 0 0.0 4.3 0.04 0.06 0.06 96 1007.9
20260506183057 59 161 0.9 3.5 0.05 0.06 0.06 95 1008.2
20260506181559 59 0 0.9 3.5 0.05 0.05 0.05 94 1008.2
20260506180106 59 188 0.0 3.5 0.04 0.04 0.04 93 1008.1
20260506174556 60 189 0.0 2.6 0.02 0.02 0.02 92 1008.1
20260506173116 60 0 0.0 3.5 0.01 0.01 0.01 91 1008.4
20260506171602 61 169 0.0 2.6 0.00 0.00 0.00 87 1008.7
20260506170059 63 174 0.9 3.5 0.00 0.00 0.00 84 1009.3
20260506164556 64 0 0.0 4.3 0.00 0.00 0.00 81 1009.4
20260506163106 65 175 0.9 4.3 0.00 0.00 0.00 79 1009.2
20260506161558 66 175 0.9 3.5 0.00 0.00 0.00 78 1009.2
20260506160106 66 207 0.9 4.3 0.00 0.00 0.00 76 1009.3
20260506154557 66 152 0.9 4.3 0.00 0.00 0.00 76 1009.5
20260506153053 67 185 0.9 4.3 0.00 0.00 0.00 75 1009.5
20260506151556 67 355 0.9 2.6 0.00 0.00 0.00 74 1009.4
20260506144555 66 265 0.0 3.5 0.00 0.00 0.00 76 1009.4
20260506143055 67 194 0.9 3.5 0.00 0.00 0.00 75 1009.7
20260506141558 67 265 0.9 2.6 0.00 0.00 0.00 75 1009.7
20260506140059 66 178 0.9 3.5 0.00 0.00 0.00 79 1009.7
20260506134617 65 0 0.9 6.1 0.00 0.00 0.00 79 1009.9
20260506133056 65 241 0.0 3.5 0.00 0.00 0.00 80 1009.6
20260506131609 63 240 0.0 4.3 0.00 0.00 0.00 83 1009.8
20260506130056 62 0 0.0 1.7 0.00 0.00 0.00 83 1009.7
20260506124554 61 186 0.9 4.3 0.00 0.00 0.00 85 1010.0
20260506123056 61 0 0.0 3.5 0.00 0.00 0.00 85 1010.3
20260506121606 60 0 0.0 6.1 0.00 0.00 0.00 85 1010.5
20260506120054 60 176 0.0 1.7 0.00 0.00 0.00 86 1010.4
20260506114557 59 0 0.0 1.7 0.00 0.00 0.00 87 1010.3
20260506113058 59 0 0.0 3.5 0.00 0.00 0.00 88 1010.6
20260506111611 58 286 0.0 1.7 0.00 0.00 0.00 90 1010.4
20260506110055 57 286 0.0 2.6 0.00 0.00 0.00 90 1010.8
20260506104554 57 288 0.0 2.6 0.00 0.00 0.00 90 1010.5
20260506103104 56 292 0.9 2.6 0.00 0.00 0.00 91 1010.7
20260506101556 56 182 0.9 2.6 0.00 0.00 0.00 91 1010.3
20260506100054 56 0 0.9 3.5 0.00 0.00 0.00 91 1010.3
20260506094557 56 256 0.9 2.6 0.00 0.00 0.00 91 1010.3
20260506093059 56 63 0.0 0.9 0.00 0.00 0.00 90 1010.3
20260506091554 56 0 0.0 2.6 0.00 0.00 0.00 90 1010.4
20260506090056 56 0 0.0 1.7 0.00 0.00 0.00 90 1010.5
20260506084601 57 32 0.0 0.9 0.00 0.00 0.00 89 1010.4
20260506083115 57 17 0.0 3.5 0.00 0.00 0.00 88 1010.5
20260506081555 57 0 0.9 3.5 0.00 0.00 0.00 88 1010.5
20260506073110 57 0 0.9 5.2 0.00 0.00 0.00 86 1010.4
20260506071601 58 290 0.0 3.5 0.00 0.00 0.00 86 1010.5
20260506070126 58 0 0.0 3.5 0.00 0.00 0.00 85 1010.4
20260506061559 59 0 0.9 3.5 0.00 0.00 0.00 83 1010.3
20260506050108 61 0 0.0 2.6 0.00 0.00 0.00 78 1010.7
20260506044558 61 336 0.0 3.5 0.00 0.00 0.00 77 1010.7
20260506043058 62 0 0.0 3.5 0.00 0.00 0.00 76 1010.8
20260506041603 62 0 0.0 1.7 0.00 0.00 0.00 74 1010.8
20260506040059 62 217 0.0 3.5 0.00 0.00 0.00 74 1010.9
20260506034559 62 178 0.9 2.6 0.00 0.00 0.00 74 1010.7
20260506033053 62 168 0.9 4.3 0.00 0.00 0.00 73 1010.7
20260506031557 63 143 0.9 2.6 0.00 0.00 0.00 72 1010.7
20260506030058 63 196 0.9 2.6 0.00 0.00 0.00 72 1010.6
20260506024605 63 196 0.9 2.6 0.00 0.00 0.00 72 1010.6
20260506023055 63 152 0.9 5.2 0.00 0.00 0.00 71 1010.4
20260506021556 63 219 0.9 3.5 0.00 0.00 0.00 71 1010.4
20260506020108 63 148 0.0 3.5 0.00 0.00 0.00 70 1010.4
20260506014610 63 0 0.0 3.5 0.00 0.00 0.00 70 1010.2
20260506013057 63 129 0.9 2.6 0.00 0.00 0.00 69 1010.0
20260506011622 64 159 0.9 3.5 0.00 0.00 0.00 68 1009.9
20260506010056 64 0 0.9 4.3 0.00 0.00 0.00 67 1009.7
20260506004604 65 0 0.0 4.3 0.00 0.00 0.00 66 1009.6
20260506003056 65 182 0.9 5.2 0.00 0.00 0.00 66 1009.3
20260506001601 66 144 0.9 3.5 0.00 0.00 0.00 65 1009.0
20260506000118 67 0 0.9 6.1 0.00 0.00 0.00 64 1008.9
20260505234556 67 180 0.9 4.3 0.00 0.00 0.00 64 1008.8
20260505233059 68 0 0.9 6.1 0.00 0.00 0.00 63 1008.7
20260505231609 69 277 0.9 5.2 0.00 0.00 0.00 62 1008.3
20260505230107 69 156 0.9 5.2 0.00 0.00 0.00 62 1008.2
20260505224558 70 198 0.9 4.3 0.00 0.00 0.00 61 1008.0
20260505223054 70 178 1.7 6.1 0.00 0.00 0.00 61 1007.8
20260505221600 71 0 1.7 5.2 0.00 0.00 0.00 60 1008.1
20260505220057 72 179 1.7 4.3 0.00 0.00 0.00 58 1008.1
20260505214557 73 172 1.7 6.1 0.00 0.00 0.00 57 1008.2
20260505213055 73 0 0.9 8.7 0.00 0.00 0.00 58 1007.9